Zurück zum Katalog

DELTA 4 DEMO SPACECRAFT

AktivWissenschaftHEO
NORAD 28500·PAYLOAD·🇺🇸 United States

Gestartet Dec 21, 2004 von Cape Canaveral Space Force Station

Loading…

Nächste Überflüge (nächste 24 Stunden)

TLE

AlterndSource: Space-Track

Epoche: Aug 31, 2026, 21:18 UTC

1 28500U 04050A   26243.88814933 -.00000101  00000-0  00000+0 0  9997
2 28500  13.7506 294.6424 2772682  30.4821 339.1334  1.41310003111958

Verfolge DELTA 4 DEMO SPACECRAFT in Echtzeit mit AllMySat

Download on the App Store